| time (UTC) | temp C | wind direction | speed KPH | gust KPH | rain 1hr cm | rain 24hr cm | rain mn cm | humidity % | barometer mb |
| 20260902235030 | 18 | 0 | 0.0 | 3.2 | 0.00 | 0.00 | 0.00 | 89 | 1019.6 |
| 20260902234550 | 18 | 0 | 0.0 | 3.2 | 0.00 | 0.00 | 0.00 | 89 | 1019.5 |
| 20260902234027 | 18 | 0 | 0.0 | 3.2 | 0.00 | 0.00 | 0.00 | 91 | 1019.5 |
| 20260902233530 | 19 | 0 | 0.0 | 0.0 | 0.00 | 0.00 | 0.00 | 92 | 1019.4 |
| 20260902233053 | 19 | 0 | 0.0 | 0.0 | 0.00 | 0.00 | 0.00 | 91 | 1019.6 |
| 20260902232526 | 19 | 0 | 0.0 | 0.0 | 0.00 | 0.00 | 0.00 | 91 | 1019.5 |
| 20260902232029 | 19 | 0 | 0.0 | 0.0 | 0.00 | 0.00 | 0.00 | 91 | 1020.0 |
| 20260902231550 | 20 | 0 | 0.0 | 0.0 | 0.00 | 0.00 | 0.00 | 91 | 1019.9 |
| 20260902231029 | 20 | 0 | 0.0 | 0.0 | 0.00 | 0.00 | 0.00 | 91 | 1020.1 |
| 20260902230528 | 20 | 0 | 0.0 | 0.0 | 0.00 | 0.00 | 0.00 | 91 | 1020.3 |
| 20260902230051 | 20 | 0 | 0.0 | 0.0 | 0.00 | 0.00 | 0.00 | 91 | 1020.5 |
| 20260902225529 | 20 | 0 | 0.0 | 0.0 | 0.00 | 0.00 | 0.00 | 91 | 1020.5 |
| 20260902225028 | 20 | 0 | 0.0 | 0.0 | 0.00 | 0.00 | 0.00 | 91 | 1020.7 |
| 20260902224552 | 20 | 0 | 0.0 | 0.0 | 0.00 | 0.00 | 0.00 | 91 | 1020.7 |
| 20260902224029 | 20 | 0 | 0.0 | 0.0 | 0.00 | 0.00 | 0.00 | 90 | 1020.6 |
| 20260902223526 | 20 | 0 | 0.0 | 0.0 | 0.00 | 0.00 | 0.00 | 90 | 1020.5 |
| 20260902223052 | 20 | 0 | 0.0 | 0.0 | 0.00 | 0.00 | 0.00 | 90 | 1020.7 |
| 20260902222530 | 20 | 0 | 0.0 | 0.0 | 0.00 | 0.00 | 0.00 | 90 | 1020.7 |
| 20260902222028 | 20 | 0 | 0.0 | 0.0 | 0.00 | 0.00 | 0.00 | 90 | 1020.7 |
| 20260902221615 | 20 | 0 | 0.0 | 0.0 | 0.00 | 0.00 | 0.00 | 89 | 1020.8 |
| 20260902221030 | 20 | 0 | 0.0 | 0.0 | 0.00 | 0.00 | 0.00 | 89 | 1020.7 |
| 20260902220528 | 20 | 0 | 0.0 | 0.0 | 0.00 | 0.00 | 0.00 | 88 | 1020.5 |
| 20260902220056 | 21 | 0 | 0.0 | 0.0 | 0.00 | 0.00 | 0.00 | 88 | 1020.5 |
| 20260902215531 | 21 | 0 | 0.0 | 0.0 | 0.00 | 0.00 | 0.00 | 87 | 1020.4 |
| 20260902215031 | 21 | 0 | 0.0 | 0.0 | 0.00 | 0.00 | 0.00 | 86 | 1020.5 |
| 20260902214550 | 21 | 0 | 0.0 | 0.0 | 0.00 | 0.00 | 0.00 | 85 | 1020.5 |
| 20260902214030 | 21 | 0 | 0.0 | 0.0 | 0.00 | 0.00 | 0.00 | 84 | 1020.5 |
| 20260902213529 | 21 | 0 | 0.0 | 0.0 | 0.00 | 0.00 | 0.00 | 84 | 1020.4 |
| 20260902213047 | 21 | 0 | 0.0 | 0.0 | 0.00 | 0.00 | 0.00 | 85 | 1020.4 |
| 20260902212530 | 21 | 0 | 0.0 | 0.0 | 0.00 | 0.00 | 0.00 | 86 | 1020.4 |
| 20260902212032 | 21 | 0 | 0.0 | 1.6 | 0.00 | 0.00 | 0.00 | 85 | 1020.4 |
| 20260902211609 | 21 | 0 | 0.0 | 1.6 | 0.00 | 0.00 | 0.00 | 84 | 1020.5 |
| 20260902211030 | 21 | 0 | 0.0 | 1.6 | 0.00 | 0.00 | 0.00 | 83 | 1020.5 |
| 20260902210532 | 21 | 0 | 0.0 | 1.6 | 0.00 | 0.00 | 0.00 | 83 | 1020.4 |
| 20260902210056 | 21 | 0 | 0.0 | 1.6 | 0.00 | 0.00 | 0.00 | 83 | 1020.4 |
| 20260902205530 | 21 | 0 | 0.0 | 1.6 | 0.00 | 0.00 | 0.00 | 83 | 1020.5 |
| 20260902205030 | 21 | 0 | 0.0 | 0.0 | 0.00 | 0.00 | 0.00 | 83 | 1020.4 |
| 20260902204553 | 21 | 0 | 0.0 | 0.0 | 0.00 | 0.00 | 0.00 | 83 | 1020.2 |
| 20260902204029 | 21 | 0 | 0.0 | 0.0 | 0.00 | 0.00 | 0.00 | 83 | 1020.2 |
| 20260902203530 | 21 | 0 | 0.0 | 0.0 | 0.00 | 0.00 | 0.00 | 84 | 1020.2 |
| 20260902203048 | 21 | 0 | 0.0 | 0.0 | 0.00 | 0.00 | 0.00 | 86 | 1020.1 |
| 20260902202531 | 21 | 0 | 0.0 | 0.0 | 0.00 | 0.00 | 0.00 | 86 | 1020.3 |
| 20260902202030 | 21 | 0 | 0.0 | 0.0 | 0.00 | 0.00 | 0.00 | 85 | 1020.3 |
| 20260902201558 | 21 | 0 | 0.0 | 0.0 | 0.00 | 0.00 | 0.00 | 86 | 1020.6 |
| 20260902201030 | 21 | 0 | 0.0 | 0.0 | 0.00 | 0.00 | 0.00 | 86 | 1020.5 |
| 20260902200532 | 21 | 0 | 0.0 | 0.0 | 0.00 | 0.00 | 0.00 | 84 | 1020.6 |
| 20260902200056 | 21 | 0 | 0.0 | 3.2 | 0.00 | 0.00 | 0.00 | 83 | 1020.7 |
| 20260902195533 | 21 | 346 | 0.0 | 3.2 | 0.00 | 0.03 | 0.00 | 80 | 1020.9 |
| 20260902195031 | 21 | 300 | 0.0 | 3.2 | 0.00 | 0.03 | 0.00 | 81 | 1021.0 |
| 20260902194549 | 22 | 0 | 0.0 | 0.0 | 0.00 | 0.03 | 0.00 | 82 | 1020.8 |
| 20260902194036 | 22 | 0 | 0.0 | 0.0 | 0.00 | 0.03 | 0.00 | 81 | 1020.8 |
| 20260902193530 | 22 | 0 | 0.0 | 1.6 | 0.00 | 0.03 | 0.00 | 83 | 1020.8 |
| 20260902193047 | 22 | 0 | 0.0 | 1.6 | 0.00 | 0.03 | 0.00 | 83 | 1020.7 |
| 20260902192530 | 22 | 0 | 0.0 | 0.0 | 0.00 | 0.03 | 0.00 | 81 | 1020.9 |
| 20260902192029 | 22 | 0 | 0.0 | 0.0 | 0.00 | 0.03 | 0.00 | 81 | 1020.9 |
| 20260902191555 | 21 | 0 | 0.0 | 1.6 | 0.00 | 0.03 | 0.00 | 82 | 1021.1 |
| 20260902191030 | 21 | 0 | 0.0 | 1.6 | 0.00 | 0.03 | 0.00 | 82 | 1021.2 |
| 20260902190530 | 21 | 0 | 0.0 | 1.6 | 0.00 | 0.03 | 0.00 | 82 | 1021.3 |
| 20260902190054 | 21 | 321 | 0.0 | 0.0 | 0.00 | 0.03 | 0.00 | 81 | 1021.1 |
| 20260902185531 | 21 | 0 | 0.0 | 0.0 | 0.00 | 0.08 | 0.00 | 82 | 1021.2 |
| 20260902185030 | 21 | 0 | 0.0 | 0.0 | 0.00 | 0.08 | 0.00 | 84 | 1021.1 |
| 20260902184550 | 21 | 0 | 0.0 | 0.0 | 0.00 | 0.08 | 0.00 | 87 | 1021.0 |
| 20260902184030 | 21 | 0 | 0.0 | 0.0 | 0.00 | 0.08 | 0.00 | 85 | 1021.0 |
| 20260902183532 | 21 | 0 | 0.0 | 0.0 | 0.00 | 0.08 | 0.00 | 84 | 1021.0 |
| 20260902183058 | 21 | 0 | 0.0 | 0.0 | 0.00 | 0.08 | 0.00 | 83 | 1021.1 |
| 20260902182532 | 21 | 0 | 0.0 | 0.0 | 0.00 | 0.08 | 0.00 | 82 | 1021.0 |
| 20260902182031 | 22 | 0 | 0.0 | 0.0 | 0.00 | 0.08 | 0.00 | 82 | 1021.1 |
| 20260902181554 | 22 | 0 | 0.0 | 0.0 | 0.00 | 0.08 | 0.00 | 79 | 1021.2 |
| 20260902181030 | 22 | 0 | 0.0 | 0.0 | 0.00 | 0.08 | 0.00 | 79 | 1021.0 |
| 20260902180530 | 22 | 0 | 0.0 | 0.0 | 0.00 | 0.08 | 0.00 | 75 | 1021.3 |
| 20260902180056 | 22 | 0 | 0.0 | 0.0 | 0.00 | 0.08 | 0.00 | 77 | 1021.3 |
| 20260902175528 | 22 | 0 | 0.0 | 0.0 | 0.00 | 0.08 | 0.00 | 78 | 1021.3 |
| 20260902175031 | 22 | 0 | 0.0 | 1.6 | 0.00 | 0.08 | 0.00 | 76 | 1021.4 |
| 20260902174552 | 22 | 0 | 0.0 | 1.6 | 0.00 | 0.08 | 0.00 | 76 | 1021.4 |
| 20260902174029 | 22 | 123 | 0.0 | 4.8 | 0.00 | 0.08 | 0.00 | 79 | 1021.5 |
| 20260902173533 | 22 | 0 | 0.0 | 4.8 | 0.00 | 0.08 | 0.00 | 77 | 1021.4 |
| 20260902173046 | 22 | 238 | 1.6 | 4.8 | 0.00 | 0.08 | 0.00 | 75 | 1021.5 |
| 20260902172530 | 22 | 243 | 0.0 | 4.8 | 0.00 | 0.08 | 0.00 | 80 | 1021.5 |
| 20260902172029 | 22 | 30 | 1.6 | 4.8 | 0.00 | 0.08 | 0.00 | 80 | 1021.6 |
| 20260902171556 | 22 | 105 | 0.0 | 3.2 | 0.00 | 0.08 | 0.00 | 78 | 1021.5 |
| 20260902171030 | 22 | 195 | 1.6 | 4.8 | 0.00 | 0.08 | 0.00 | 79 | 1021.6 |
| 20260902170531 | 22 | 0 | 1.6 | 4.8 | 0.00 | 0.08 | 0.00 | 81 | 1021.5 |
| 20260902170055 | 21 | 244 | 1.6 | 3.2 | 0.00 | 0.08 | 0.00 | 80 | 1021.4 |
| 20260902165530 | 21 | 0 | 0.0 | 6.4 | 0.00 | 0.71 | 0.00 | 81 | 1021.4 |
| 20260902165028 | 21 | 218 | 1.6 | 6.4 | 0.00 | 0.71 | 0.00 | 81 | 1021.6 |
| 20260902164559 | 21 | 155 | 0.0 | 3.2 | 0.00 | 0.71 | 0.00 | 83 | 1021.7 |
| 20260902164031 | 21 | 0 | 0.0 | 3.2 | 0.00 | 0.71 | 0.00 | 84 | 1021.7 |
| 20260902163531 | 21 | 311 | 0.0 | 3.2 | 0.00 | 0.71 | 0.00 | 82 | 1021.8 |
| 20260902163050 | 21 | 223 | 0.0 | 3.2 | 0.00 | 0.71 | 0.00 | 82 | 1021.9 |
| 20260902162529 | 21 | 0 | 0.0 | 1.6 | 0.00 | 0.71 | 0.00 | 85 | 1022.1 |
| 20260902162030 | 21 | 0 | 0.0 | 1.6 | 0.00 | 0.71 | 0.00 | 87 | 1022.0 |
| 20260902161558 | 21 | 134 | 0.0 | 1.6 | 0.00 | 0.71 | 0.00 | 85 | 1022.2 |
| 20260902161029 | 20 | 0 | 0.0 | 1.6 | 0.00 | 0.71 | 0.00 | 87 | 1022.1 |
| 20260902160528 | 20 | 210 | 0.0 | 1.6 | 0.00 | 0.71 | 0.00 | 87 | 1022.1 |
| 20260902160042 | 20 | 0 | 0.0 | 1.6 | 0.00 | 0.71 | 0.00 | 85 | 1022.3 |
| 20260902155528 | 20 | 0 | 0.0 | 1.6 | 0.00 | 0.71 | 0.00 | 85 | 1022.3 |
| 20260902155028 | 20 | 0 | 0.0 | 4.8 | 0.00 | 0.71 | 0.00 | 88 | 1022.3 |
| 20260902154557 | 20 | 0 | 0.0 | 4.8 | 0.00 | 0.71 | 0.00 | 87 | 1022.3 |
| 20260902154027 | 20 | 0 | 0.0 | 3.2 | 0.00 | 0.71 | 0.00 | 86 | 1022.2 |
| 20260902153529 | 20 | 0 | 0.0 | 3.2 | 0.00 | 0.71 | 0.00 | 88 | 1022.4 |
| 20260902153047 | 20 | 200 | 0.0 | 3.2 | 0.00 | 0.71 | 0.00 | 87 | 1022.4 |
| 20260902152528 | 20 | 0 | 0.0 | 4.8 | 0.00 | 0.71 | 0.00 | 89 | 1022.3 |
| 20260902152028 | 20 | 225 | 1.6 | 4.8 | 0.00 | 0.71 | 0.00 | 86 | 1022.4 |
| 20260902151545 | 20 | 0 | 0.0 | 0.0 | 0.00 | 0.71 | 0.00 | 90 | 1022.4 |
| 20260902151026 | 19 | 0 | 0.0 | 0.0 | 0.00 | 0.71 | 0.00 | 88 | 1022.7 |
| 20260902150529 | 19 | 0 | 0.0 | 0.0 | 0.00 | 0.71 | 0.00 | 89 | 1022.7 |
| 20260902150043 | 19 | 0 | 0.0 | 0.0 | 0.00 | 0.71 | 0.00 | 91 | 1022.8 |
| 20260902145529 | 18 | 0 | 0.0 | 0.0 | 0.00 | 0.79 | 0.00 | 91 | 1022.7 |
| 20260902145030 | 18 | 0 | 0.0 | 0.0 | 0.00 | 0.79 | 0.00 | 91 | 1022.7 |
| 20260902144550 | 18 | 0 | 0.0 | 0.0 | 0.00 | 0.79 | 0.00 | 91 | 1022.6 |
| 20260902144027 | 18 | 0 | 0.0 | 0.0 | 0.00 | 0.79 | 0.00 | 92 | 1022.6 |
| 20260902143531 | 18 | 0 | 0.0 | 0.0 | 0.00 | 0.79 | 0.00 | 92 | 1022.7 |
| 20260902143046 | 18 | 0 | 0.0 | 0.0 | 0.00 | 0.79 | 0.00 | 94 | 1022.7 |
| 20260902142528 | 18 | 0 | 0.0 | 1.6 | 0.00 | 0.79 | 0.00 | 94 | 1022.9 |
| 20260902142028 | 18 | 0 | 0.0 | 1.6 | 0.00 | 0.79 | 0.00 | 93 | 1022.8 |
| 20260902141551 | 18 | 0 | 0.0 | 1.6 | 0.00 | 0.79 | 0.00 | 94 | 1022.8 |
| 20260902141032 | 18 | 0 | 0.0 | 1.6 | 0.00 | 0.79 | 0.00 | 94 | 1022.6 |
| 20260902140528 | 17 | 312 | 0.0 | 1.6 | 0.00 | 0.79 | 0.00 | 95 | 1022.6 |
| 20260902140048 | 17 | 0 | 0.0 | 1.6 | 0.00 | 0.79 | 0.00 | 96 | 1022.6 |
| 20260902135527 | 17 | 0 | 0.0 | 1.6 | 0.00 | 0.94 | 0.00 | 96 | 1022.5 |
| 20260902135027 | 17 | 336 | 0.0 | 1.6 | 0.00 | 0.94 | 0.00 | 96 | 1022.6 |
| 20260902134548 | 17 | 0 | 0.0 | 3.2 | 0.00 | 0.94 | 0.00 | 97 | 1022.3 |
| 20260902134029 | 17 | 0 | 0.0 | 3.2 | 0.00 | 0.94 | 0.00 | 97 | 1022.3 |
| 20260902133529 | 17 | 260 | 0.0 | 3.2 | 0.00 | 0.94 | 0.00 | 97 | 1022.3 |
| 20260902133057 | 17 | 0 | 0.0 | 3.2 | 0.00 | 0.94 | 0.00 | 98 | 1022.3 |
| 20260902132530 | 17 | 0 | 0.0 | 1.6 | 0.00 | 0.94 | 0.00 | 99 | 1022.1 |
| 20260902132028 | 17 | 274 | 0.0 | 1.6 | 0.00 | 0.94 | 0.00 | 98 | 1022.1 |
| 20260902131546 | 17 | 0 | 0.0 | 1.6 | 0.00 | 0.94 | 0.00 | 99 | 1022.0 |
| 20260902131029 | 17 | 261 | 0.0 | 1.6 | 0.00 | 0.94 | 0.00 | 99 | 1022.0 |
| 20260902130532 | 16 | 0 | 0.0 | 0.0 | 0.00 | 0.94 | 0.00 | 99 | 1022.2 |
| 20260902130052 | 16 | 0 | 0.0 | 1.6 | 0.00 | 0.94 | 0.00 | 99 | 1022.3 |
| 20260902125528 | 16 | 0 | 0.0 | 1.6 | 0.00 | 4.01 | 0.00 | 99 | 1022.3 |
| 20260902125031 | 16 | 0 | 0.0 | 0.0 | 0.00 | 4.01 | 0.00 | 99 | 1022.2 |
| 20260902124605 | 16 | 0 | 0.0 | 0.0 | 0.00 | 4.01 | 0.00 | 99 | 1022.2 |
| 20260902124031 | 16 | 0 | 0.0 | 0.0 | 0.00 | 4.01 | 0.00 | 99 | 1022.2 |
| 20260902123529 | 16 | 0 | 0.0 | 0.0 | 0.00 | 4.01 | 0.00 | 99 | 1022.2 |
| 20260902123054 | 16 | 0 | 0.0 | 0.0 | 0.00 | 4.01 | 0.00 | 99 | 1022.2 |
| 20260902122532 | 16 | 0 | 0.0 | 0.0 | 0.00 | 4.01 | 0.00 | 99 | 1022.1 |
| 20260902122030 | 16 | 0 | 0.0 | 0.0 | 0.00 | 4.01 | 0.00 | 99 | 1022.1 |
| 20260902121551 | 16 | 0 | 0.0 | 0.0 | 0.00 | 4.01 | 0.00 | 99 | 1022.0 |
| 20260902121031 | 16 | 0 | 0.0 | 0.0 | 0.00 | 4.01 | 0.00 | 99 | 1022.0 |
| 20260902120528 | 16 | 0 | 0.0 | 0.0 | 0.00 | 4.01 | 0.00 | 99 | 1022.1 |
| 20260902120051 | 16 | 0 | 0.0 | 0.0 | 0.00 | 4.01 | 0.00 | 99 | 1022.1 |
| 20260902115529 | 16 | 0 | 0.0 | 0.0 | 0.00 | 5.13 | 0.00 | 99 | 1022.0 |
| 20260902115030 | 16 | 0 | 0.0 | 0.0 | 0.00 | 5.13 | 0.00 | 99 | 1022.0 |
| 20260902114546 | 16 | 0 | 0.0 | 0.0 | 0.00 | 5.13 | 0.00 | 99 | 1022.1 |
| 20260902114029 | 16 | 0 | 0.0 | 0.0 | 0.00 | 5.13 | 0.00 | 99 | 1022.2 |
| 20260902113531 | 16 | 0 | 0.0 | 0.0 | 0.00 | 5.13 | 0.00 | 99 | 1022.3 |
| 20260902113057 | 16 | 0 | 0.0 | 0.0 | 0.00 | 5.13 | 0.00 | 99 | 1022.4 |
| 20260902112530 | 16 | 0 | 0.0 | 0.0 | 0.00 | 5.13 | 0.00 | 99 | 1022.5 |
| 20260902112030 | 16 | 0 | 0.0 | 0.0 | 0.00 | 5.13 | 0.00 | 99 | 1022.4 |
| 20260902111556 | 16 | 0 | 0.0 | 0.0 | 0.00 | 5.13 | 0.00 | 99 | 1022.5 |
| 20260902111029 | 15 | 0 | 0.0 | 0.0 | 0.00 | 5.13 | 0.00 | 99 | 1022.5 |
| 20260902110531 | 15 | 0 | 0.0 | 0.0 | 0.00 | 5.13 | 0.00 | 99 | 1022.4 |
| 20260902110052 | 15 | 0 | 0.0 | 0.0 | 0.00 | 5.13 | 0.00 | 99 | 1022.3 |
| 20260902105529 | 15 | 0 | 0.0 | 0.0 | 0.00 | 5.33 | 0.00 | 99 | 1022.2 |
| 20260902105029 | 15 | 0 | 0.0 | 0.0 | 0.00 | 5.33 | 0.00 | 99 | 1022.1 |
| 20260902104550 | 15 | 0 | 0.0 | 1.6 | 0.00 | 5.33 | 0.00 | 99 | 1022.1 |
| 20260902104031 | 15 | 0 | 0.0 | 1.6 | 0.00 | 5.33 | 0.00 | 99 | 1022.1 |
| 20260902103530 | 15 | 0 | 0.0 | 0.0 | 0.00 | 5.33 | 0.00 | 99 | 1022.1 |
| 20260902103047 | 15 | 0 | 0.0 | 0.0 | 0.00 | 5.33 | 0.00 | 99 | 1022.1 |
| 20260902102529 | 15 | 0 | 0.0 | 0.0 | 0.00 | 5.33 | 0.00 | 99 | 1022.0 |
| 20260902102029 | 15 | 0 | 0.0 | 0.0 | 0.00 | 5.33 | 0.00 | 99 | 1022.1 |
| 20260902101556 | 15 | 0 | 0.0 | 0.0 | 0.00 | 5.33 | 0.00 | 99 | 1021.9 |
| 20260902101029 | 15 | 0 | 0.0 | 0.0 | 0.00 | 5.33 | 0.00 | 99 | 1021.7 |
| 20260902100530 | 15 | 0 | 0.0 | 0.0 | 0.00 | 5.33 | 0.00 | 99 | 1021.7 |
| 20260902100050 | 15 | 0 | 0.0 | 0.0 | 0.00 | 5.33 | 0.00 | 99 | 1021.7 |
| 20260902095530 | 15 | 0 | 0.0 | 0.0 | 0.00 | 5.46 | 0.00 | 99 | 1021.9 |
| 20260902095030 | 15 | 0 | 0.0 | 0.0 | 0.00 | 5.46 | 0.00 | 99 | 1021.8 |
| 20260902094546 | 15 | 0 | 0.0 | 0.0 | 0.00 | 5.46 | 0.00 | 99 | 1021.6 |
| 20260902094030 | 15 | 0 | 0.0 | 0.0 | 0.00 | 5.46 | 0.00 | 99 | 1021.6 |
| 20260902093529 | 15 | 0 | 0.0 | 0.0 | 0.00 | 5.46 | 0.00 | 99 | 1021.5 |
| 20260902093057 | 15 | 0 | 0.0 | 0.0 | 0.00 | 5.46 | 0.00 | 99 | 1021.5 |
| 20260902092529 | 15 | 0 | 0.0 | 0.0 | 0.00 | 5.46 | 0.00 | 99 | 1021.4 |
| 20260902092030 | 15 | 0 | 0.0 | 0.0 | 0.00 | 5.46 | 0.00 | 99 | 1021.3 |
| 20260902091553 | 15 | 0 | 0.0 | 0.0 | 0.00 | 5.46 | 0.00 | 99 | 1021.4 |
| 20260902091030 | 15 | 0 | 0.0 | 0.0 | 0.00 | 5.46 | 0.00 | 99 | 1021.2 |
| 20260902090530 | 15 | 0 | 0.0 | 0.0 | 0.00 | 5.46 | 0.00 | 99 | 1021.3 |
| 20260902090054 | 15 | 0 | 0.0 | 1.6 | 0.00 | 5.46 | 0.00 | 99 | 1021.1 |
| 20260902085529 | 15 | 0 | 0.0 | 1.6 | 0.00 | 5.56 | 0.00 | 99 | 1021.2 |
| 20260902085030 | 15 | 0 | 0.0 | 1.6 | 0.00 | 5.56 | 0.00 | 99 | 1021.2 |
| 20260902084557 | 15 | 0 | 0.0 | 0.0 | 0.00 | 5.56 | 0.00 | 99 | 1021.2 |
| 20260902084031 | 15 | 0 | 0.0 | 0.0 | 0.00 | 5.56 | 0.00 | 99 | 1021.2 |
| 20260902083530 | 15 | 0 | 0.0 | 1.6 | 0.00 | 5.56 | 0.00 | 99 | 1021.3 |
| 20260902083052 | 15 | 0 | 0.0 | 1.6 | 0.00 | 5.56 | 0.00 | 99 | 1021.1 |
| 20260902082531 | 15 | 0 | 0.0 | 1.6 | 0.00 | 5.56 | 0.00 | 99 | 1021.1 |
| 20260902082028 | 15 | 0 | 0.0 | 1.6 | 0.00 | 5.56 | 0.00 | 99 | 1020.9 |
| 20260902081609 | 15 | 0 | 0.0 | 1.6 | 0.00 | 5.56 | 0.00 | 99 | 1020.9 |
| 20260902081030 | 15 | 0 | 0.0 | 0.0 | 0.00 | 5.56 | 0.00 | 99 | 1020.9 |
| 20260902080530 | 15 | 0 | 0.0 | 1.6 | 0.00 | 5.56 | 0.00 | 99 | 1020.8 |
| 20260902080044 | 15 | 0 | 0.0 | 1.6 | 0.00 | 5.56 | 0.00 | 99 | 1021.0 |
| 20260902075529 | 15 | 287 | 0.0 | 1.6 | 0.00 | 5.56 | 0.00 | 99 | 1020.9 |
| 20260902075030 | 15 | 0 | 0.0 | 0.0 | 0.00 | 5.56 | 0.00 | 99 | 1020.9 |
| 20260902074556 | 15 | 0 | 0.0 | 0.0 | 0.00 | 5.56 | 0.00 | 99 | 1020.9 |
| 20260902074031 | 15 | 0 | 0.0 | 0.0 | 0.00 | 5.56 | 0.00 | 99 | 1021.0 |
| 20260902073531 | 15 | 0 | 0.0 | 0.0 | 0.00 | 5.56 | 0.00 | 99 | 1021.1 |
| 20260902073050 | 15 | 0 | 0.0 | 0.0 | 0.00 | 5.56 | 0.00 | 99 | 1020.9 |
| 20260902072529 | 15 | 0 | 0.0 | 0.0 | 0.00 | 5.56 | 0.00 | 99 | 1021.2 |
| 20260902072030 | 15 | 0 | 0.0 | 0.0 | 0.00 | 5.56 | 0.00 | 99 | 1021.2 |
| 20260902071554 | 15 | 0 | 0.0 | 0.0 | 0.00 | 5.56 | 0.00 | 99 | 1021.0 |
| 20260902071030 | 15 | 0 | 0.0 | 0.0 | 0.00 | 5.56 | 0.00 | 99 | 1021.0 |
| 20260902070530 | 15 | 0 | 0.0 | 1.6 | 0.00 | 5.56 | 0.00 | 99 | 1021.0 |
| 20260902070135 | 15 | 0 | 0.0 | 1.6 | 0.00 | 5.56 | 0.00 | 99 | 1021.1 |
| 20260902065531 | 15 | 0 | 0.0 | 1.6 | 0.00 | 5.56 | 0.00 | 99 | 1021.3 |
| 20260902065030 | 15 | 0 | 0.0 | 0.0 | 0.00 | 5.56 | 0.00 | 99 | 1021.2 |
| 20260902064601 | 15 | 0 | 0.0 | 0.0 | 0.00 | 5.56 | 0.00 | 99 | 1021.1 |
| 20260902064030 | 15 | 0 | 0.0 | 1.6 | 0.00 | 5.56 | 0.00 | 99 | 1021.3 |
| 20260902063532 | 16 | 0 | 0.0 | 1.6 | 0.00 | 5.56 | 0.00 | 99 | 1021.3 |
| 20260902063054 | 16 | 0 | 0.0 | 0.0 | 0.00 | 5.56 | 0.00 | 99 | 1021.2 |
| 20260902062530 | 16 | 0 | 0.0 | 0.0 | 0.00 | 5.56 | 0.00 | 99 | 1021.2 |
| 20260902062031 | 16 | 0 | 0.0 | 0.0 | 0.00 | 5.56 | 0.00 | 99 | 1021.1 |
| 20260902061549 | 16 | 0 | 0.0 | 1.6 | 0.00 | 5.56 | 0.00 | 99 | 1021.1 |
| 20260902061030 | 15 | 0 | 0.0 | 1.6 | 0.00 | 5.56 | 0.00 | 99 | 1021.2 |
| 20260902060530 | 16 | 0 | 0.0 | 0.0 | 0.00 | 5.56 | 0.00 | 99 | 1021.1 |
| 20260902060108 | 16 | 0 | 0.0 | 0.0 | 0.00 | 5.56 | 0.00 | 99 | 1021.0 |
| 20260902055527 | 16 | 0 | 0.0 | 0.0 | 0.00 | 5.59 | 0.00 | 99 | 1020.9 |
| 20260902055029 | 16 | 0 | 0.0 | 0.0 | 0.00 | 5.59 | 0.00 | 99 | 1021.0 |
| 20260902054552 | 16 | 0 | 0.0 | 0.0 | 0.00 | 5.59 | 0.00 | 99 | 1021.0 |
| 20260902054029 | 16 | 0 | 0.0 | 0.0 | 0.00 | 5.59 | 0.00 | 99 | 1020.9 |
| 20260902053531 | 16 | 0 | 0.0 | 0.0 | 0.00 | 5.59 | 0.00 | 99 | 1020.9 |
| 20260902053052 | 16 | 0 | 0.0 | 0.0 | 0.00 | 5.59 | 0.00 | 99 | 1020.7 |
| 20260902052531 | 16 | 0 | 0.0 | 0.0 | 0.00 | 5.59 | 0.00 | 99 | 1021.0 |
| 20260902052029 | 16 | 0 | 0.0 | 0.0 | 0.00 | 5.59 | 0.00 | 99 | 1020.9 |
| 20260902051546 | 16 | 0 | 0.0 | 0.0 | 0.00 | 5.59 | 0.00 | 99 | 1020.7 |
| 20260902051027 | 16 | 0 | 0.0 | 0.0 | 0.00 | 5.59 | 0.00 | 99 | 1020.8 |
| 20260902050531 | 16 | 0 | 0.0 | 0.0 | 0.00 | 5.59 | 0.00 | 99 | 1020.8 |
| 20260902045527 | 16 | 0 | 0.0 | 3.2 | 0.00 | 5.59 | 0.00 | 99 | 1020.6 |
| 20260902045030 | 16 | 0 | 0.0 | 3.2 | 0.00 | 5.59 | 0.00 | 99 | 1020.6 |
| 20260902044607 | 16 | 0 | 0.0 | 0.0 | 0.00 | 5.59 | 0.00 | 99 | 1020.7 |
| 20260902044029 | 16 | 0 | 0.0 | 0.0 | 0.00 | 5.59 | 0.00 | 99 | 1020.6 |
| 20260902043529 | 16 | 0 | 0.0 | 1.6 | 0.00 | 5.59 | 0.00 | 99 | 1020.6 |
| 20260902043049 | 16 | 0 | 0.0 | 1.6 | 0.00 | 5.59 | 0.00 | 99 | 1020.4 |
| 20260902042529 | 16 | 0 | 0.0 | 1.6 | 0.00 | 5.59 | 0.00 | 99 | 1020.3 |
| 20260902042031 | 16 | 0 | 0.0 | 1.6 | 0.00 | 5.59 | 0.00 | 99 | 1020.4 |
| 20260902041545 | 16 | 0 | 0.0 | 0.0 | 0.00 | 5.59 | 0.00 | 99 | 1020.2 |
| 20260902041035 | 16 | 0 | 0.0 | 1.6 | 0.00 | 5.59 | 0.00 | 99 | 1020.3 |
| 20260902040530 | 16 | 0 | 0.0 | 1.6 | 0.00 | 5.59 | 0.00 | 99 | 1020.1 |
| 20260902040052 | 16 | 0 | 0.0 | 0.0 | 0.00 | 5.59 | 0.00 | 99 | 1020.2 |
| 20260902035534 | 16 | 0 | 0.0 | 0.0 | 0.00 | 5.59 | 5.59 | 99 | 1020.2 |
| 20260902035028 | 16 | 0 | 0.0 | 0.0 | 0.00 | 5.59 | 5.59 | 99 | 1019.9 |
| 20260902034548 | 16 | 0 | 0.0 | 0.0 | 0.00 | 5.59 | 5.59 | 99 | 1019.9 |
| 20260902034030 | 16 | 0 | 0.0 | 0.0 | 0.00 | 5.59 | 5.59 | 99 | 1019.9 |
| 20260902033531 | 16 | 0 | 0.0 | 0.0 | 0.00 | 5.59 | 5.59 | 99 | 1019.8 |
| 20260902033100 | 16 | 0 | 0.0 | 0.0 | 0.00 | 5.59 | 5.59 | 99 | 1019.7 |
| 20260902032529 | 16 | 0 | 0.0 | 0.0 | 0.00 | 5.59 | 5.59 | 99 | 1019.7 |
| 20260902032028 | 16 | 0 | 0.0 | 1.6 | 0.00 | 5.59 | 5.59 | 99 | 1019.7 |
| 20260902031559 | 16 | 0 | 0.0 | 1.6 | 0.00 | 5.59 | 5.59 | 99 | 1019.7 |
| 20260902031030 | 16 | 0 | 0.0 | 0.0 | 0.00 | 5.59 | 5.59 | 99 | 1019.8 |
| 20260902030532 | 16 | 0 | 0.0 | 0.0 | 0.00 | 5.59 | 5.59 | 99 | 1019.6 |
| 20260902030042 | 16 | 0 | 0.0 | 0.0 | 0.00 | 5.59 | 5.59 | 99 | 1019.7 |
| 20260902025531 | 16 | 0 | 0.0 | 0.0 | 0.00 | 5.59 | 5.59 | 99 | 1019.4 |
| 20260902025029 | 16 | 0 | 0.0 | 0.0 | 0.00 | 5.59 | 5.59 | 99 | 1019.6 |
| 20260902024558 | 16 | 0 | 0.0 | 0.0 | 0.00 | 5.59 | 5.59 | 99 | 1019.6 |
| 20260902024029 | 16 | 0 | 0.0 | 0.0 | 0.00 | 5.59 | 5.59 | 99 | 1019.7 |
| 20260902023530 | 16 | 0 | 0.0 | 0.0 | 0.00 | 5.59 | 5.59 | 99 | 1019.9 |
| 20260902023050 | 16 | 0 | 0.0 | 1.6 | 0.00 | 5.59 | 5.59 | 99 | 1019.8 |
| 20260902022530 | 16 | 0 | 0.0 | 1.6 | 0.00 | 5.59 | 5.59 | 99 | 1019.7 |
| 20260902022030 | 16 | 250 | 0.0 | 1.6 | 0.00 | 5.59 | 5.59 | 99 | 1019.9 |
| 20260902021550 | 16 | 250 | 0.0 | 0.0 | 0.00 | 5.59 | 5.59 | 99 | 1019.9 |
| 20260902021030 | 16 | 0 | 0.0 | 0.0 | 0.00 | 5.59 | 5.59 | 99 | 1019.7 |
| 20260902020530 | 16 | 0 | 0.0 | 0.0 | 0.00 | 5.59 | 5.59 | 99 | 1019.7 |
| 20260902020043 | 16 | 0 | 0.0 | 0.0 | 0.00 | 5.59 | 5.59 | 99 | 1019.9 |
| 20260902015528 | 16 | 0 | 0.0 | 0.0 | 0.00 | 5.59 | 5.59 | 99 | 1019.9 |
| 20260902015030 | 16 | 0 | 0.0 | 0.0 | 0.00 | 5.59 | 5.59 | 99 | 1019.9 |
| 20260902014552 | 16 | 0 | 0.0 | 0.0 | 0.00 | 5.59 | 5.59 | 99 | 1019.9 |
| 20260902014027 | 16 | 0 | 0.0 | 0.0 | 0.00 | 5.59 | 5.59 | 99 | 1019.9 |
| 20260902013530 | 16 | 0 | 0.0 | 0.0 | 0.00 | 5.59 | 5.59 | 99 | 1019.8 |
| 20260902013049 | 16 | 0 | 0.0 | 0.0 | 0.00 | 5.59 | 5.59 | 99 | 1019.8 |
| 20260902012529 | 16 | 0 | 0.0 | 0.0 | 0.00 | 5.59 | 5.59 | 99 | 1019.7 |
| 20260902012029 | 16 | 0 | 0.0 | 0.0 | 0.00 | 5.59 | 5.59 | 99 | 1019.8 |
| 20260902011546 | 16 | 0 | 0.0 | 0.0 | 0.00 | 5.59 | 5.59 | 99 | 1019.9 |
| 20260902011030 | 16 | 0 | 0.0 | 0.0 | 0.00 | 5.59 | 5.59 | 99 | 1019.7 |
| 20260902010529 | 16 | 0 | 0.0 | 0.0 | 0.00 | 5.59 | 5.59 | 99 | 1019.6 |
| 20260902010052 | 16 | 0 | 0.0 | 0.0 | 0.00 | 5.59 | 5.59 | 99 | 1019.6 |
| 20260902005529 | 16 | 0 | 0.0 | 0.0 | 0.00 | 5.59 | 5.59 | 99 | 1019.4 |
| 20260902005029 | 16 | 0 | 0.0 | 0.0 | 0.00 | 5.59 | 5.59 | 99 | 1019.4 |
| 20260902004553 | 16 | 0 | 0.0 | 0.0 | 0.00 | 5.59 | 5.59 | 99 | 1019.3 |
| 20260902004029 | 16 | 0 | 0.0 | 0.0 | 0.00 | 5.59 | 5.59 | 99 | 1019.1 |
| 20260902003530 | 16 | 0 | 0.0 | 0.0 | 0.00 | 5.59 | 5.59 | 99 | 1019.3 |
| 20260902003048 | 16 | 0 | 0.0 | 0.0 | 0.00 | 5.59 | 5.59 | 99 | 1019.1 |
| 20260902002533 | 16 | 0 | 0.0 | 0.0 | 0.00 | 5.59 | 5.59 | 99 | 1019.2 |
| 20260902002029 | 16 | 0 | 0.0 | 0.0 | 0.00 | 5.59 | 5.59 | 99 | 1019.1 |
| 20260902001550 | 16 | 0 | 0.0 | 0.0 | 0.00 | 5.59 | 5.59 | 99 | 1019.0 |
| 20260902001032 | 16 | 0 | 0.0 | 0.0 | 0.00 | 5.59 | 5.59 | 99 | 1019.0 |
| 20260902000531 | 16 | 0 | 0.0 | 0.0 | 0.00 | 5.59 | 5.59 | 99 | 1018.9 |
| 20260902000049 | 16 | 0 | 0.0 | 0.0 | 0.00 | 5.59 | 5.59 | 99 | 1018.9 |
| 20260901235531 | 16 | 0 | 0.0 | 0.0 | 0.00 | 5.59 | 5.59 | 99 | 1018.7 |